Location: Newark
(37.3396°N, 6.0260°W)
Time: 15:16:58
(UTC+00:00)

N. Korean satellite - Visible Passes

Search period start: 14 October 2019 00:00
Search period end: 24 October 2019 00:00
Orbit: 455 x 508 km, 97.2° (Epoch: 14 October)

Date Brightness Start Highest point End Pass type
(mag) Time Alt. Az. Time Alt. Az. Time Alt. Az.
14 Oct 8.6 05:50:06 10° NNE 05:53:23 33° E 05:56:40 10° SSE visible
15 Oct 10.0 05:25:42 10° NE 05:28:00 16° E 05:30:17 10° SE visible
16 Oct 10.5 18:42:05 10° WSW 18:42:59 11° W 18:43:54 10° WNW visible
17 Oct 9.4 18:14:45 10° SSW 18:17:32 23° W 18:20:21 10° NW visible
18 Oct 9.1 05:42:28 10° NE 05:45:35 27° E 05:48:44 10° SSE visible
19 Oct 10.2 05:18:25 10° ENE 05:20:10 13° E 05:21:56 10° ESE visible
20 Oct 10.1 18:33:17 10° SW 18:35:07 14° W 18:36:56 10° WNW visible
21 Oct 7.8 05:59:36 10° NNE 06:03:08 47° E 06:06:41 10° S visible
21 Oct 8.9 18:06:38 10° SSW 18:09:40 29° W 18:12:44 10° NW visible
22 Oct 9.5 05:34:52 10° NE 05:37:46 22° E 05:40:39 10° SSE visible
23 Oct 10.5 05:11:34 10° E 05:12:18 10° E 05:13:03 10° ESE visible
